This is the latest recevied weather packets stored in our database for station/object KG7FOQ-13. If no packets are shown the sender has not sent any weather packets the latest 1 day(s).
| Time | Temp. | Humidity | Pressure | Rain* | Wind** | Luminosity | Snow |
|---|---|---|---|---|---|---|---|
| 1778022526 | 20° C | 28% | 1007.8 hPa | 0 mm | 4.92 m/s, 249° | - | - |
| 1778022223 | 20° C | 28% | 1007.8 hPa | 0 mm | 5.81 m/s, 259° | - | - |
| 1778021923 | 20° C | 28% | 1007.8 hPa | 0 mm | 4.02 m/s, 262° | - | - |
| 1778021622 | 20° C | 27% | 1007.8 hPa | 0 mm | 5.81 m/s, 242° | - | - |
| 1778021322 | 20° C | 26% | 1008 hPa | 0 mm | 2.24 m/s, 191° | - | - |
| 1778021021 | 20° C | 28% | 1008.1 hPa | 0 mm | 0.89 m/s, 297° | - | - |
| 1778020721 | 20° C | 28% | 1008.1 hPa | 0 mm | 1.79 m/s, 316° | - | - |
| 1778020453 | 20° C | 27% | 1008.2 hPa | 0 mm | 2.24 m/s, 333° | - | - |
| 1778020420 | 20° C | 27% | 1008.2 hPa | 0 mm | 2.24 m/s, 333° | - | - |
| 1778020120 | 20° C | 27% | 1008.2 hPa | 0 mm | 1.79 m/s, 260° | - | - |
| 1778019819 | 19.44° C | 28% | 1008.2 hPa | 0 mm | 3.13 m/s, 322° | - | - |
| 1778019518 | 20° C | 27% | 1008.3 hPa | 0 mm | 1.79 m/s, 315° | - | - |
| 1778019218 | 20° C | 27% | 1008.3 hPa | 0 mm | 2.68 m/s, 314° | - | - |
| 1778018916 | 20° C | 28% | 1008.3 hPa | 0 mm | 2.24 m/s, 280° | - | - |
| 1778018315 | 20° C | 27% | 1008.4 hPa | 0 mm | 4.02 m/s, 294° | - | - |
| 1778018015 | 20.56° C | 29% | 1008.4 hPa | 0 mm | 0.45 m/s, 45° | - | - |
| 1778017714 | 20° C | 30% | 1008.5 hPa | 0 mm | 0.89 m/s, 302° | - | - |
| 1778017454 | 20° C | 30% | 1008.5 hPa | 0 mm | 2.24 m/s, 238° | - | - |
| 1778017414 | 20° C | 30% | 1008.5 hPa | 0 mm | 2.24 m/s, 238° | - | - |
| 1778017112 | 19.44° C | 30% | 1008.6 hPa | 0 mm | 4.47 m/s, 263° | - | - |
| 1778016812 | 20° C | 29% | 1008.6 hPa | 0 mm | 4.47 m/s, 302° | - | - |
| 1778016511 | 20° C | 29% | 1008.6 hPa | 0 mm | 4.02 m/s, 314° | - | - |
| 1778016210 | 20° C | 31% | 1008.8 hPa | 0 mm | 1.34 m/s, 345° | - | - |
| 1778015909 | 20° C | 30% | 1008.8 hPa | 0 mm | 1.34 m/s, 233° | - | - |
| 1778015609 | 19.44° C | 31% | 1008.8 hPa | 0 mm | 1.79 m/s, 271° | - | - |
* Rain latest hour (hover to see other rain measurements)
** Current wind speed in m/s (hover to see current wind gust speed)